| time (UTC) | temp F | wind direction | speed MPH | gust MPH | rain 1hr in | rain 24hr in | rain mn in | humidity % | barometer mb |
| 20260903061508 | 88 | 96 | 3.0 | 9.0 | 0.00 | 0.00 | 0.00 | 11 | 993.4 |
| 20260903060012 | 87 | 107 | 2.0 | 8.0 | 0.00 | 0.00 | 0.00 | 11 | 993.5 |
| 20260903054504 | 87 | 136 | 2.0 | 6.0 | 0.00 | 0.00 | 0.00 | 11 | 993.5 |
| 20260903053004 | 89 | 124 | 2.0 | 8.0 | 0.00 | 0.00 | 0.00 | 12 | 993.6 |
| 20260903051502 | 89 | 111 | 4.0 | 9.0 | 0.00 | 0.00 | 0.00 | 11 | 993.6 |
| 20260903050008 | 89 | 138 | 3.0 | 6.0 | 0.00 | 0.00 | 0.00 | 12 | 993.5 |
| 20260903044503 | 89 | 110 | 4.0 | 7.0 | 0.00 | 0.00 | 0.00 | 12 | 993.6 |
| 20260903043006 | 88 | 128 | 1.0 | 4.0 | 0.00 | 0.00 | 0.00 | 12 | 993.6 |
| 20260903041501 | 89 | 99 | 0.0 | 4.0 | 0.00 | 0.00 | 0.00 | 12 | 993.5 |
| 20260903040001 | 89 | 101 | 2.0 | 3.0 | 0.00 | 0.00 | 0.00 | 13 | 993.4 |
| 20260903034605 | 89 | 149 | 0.0 | 1.0 | 0.00 | 0.00 | 0.00 | 13 | 993.2 |
| 20260903033123 | 90 | 100 | 0.0 | 4.0 | 0.00 | 0.00 | 0.00 | 12 | 993.0 |
| 20260903031634 | 90 | 104 | 0.0 | 1.0 | 0.00 | 0.00 | 0.00 | 12 | 992.8 |
| 20260903024558 | 92 | 243 | 0.0 | 1.0 | 0.00 | 0.00 | 0.00 | 12 | 992.5 |
| 20260903023101 | 93 | 152 | 0.0 | 4.0 | 0.00 | 0.00 | 0.00 | 12 | 992.6 |
| 20260903021556 | 95 | 234 | 2.0 | 6.0 | 0.00 | 0.00 | 0.00 | 11 | 992.4 |
| 20260903020056 | 96 | 218 | 2.0 | 8.0 | 0.00 | 0.00 | 0.00 | 11 | 992.5 |
| 20260903014558 | 98 | 215 | 4.0 | 10.0 | 0.00 | 0.00 | 0.00 | 11 | 992.4 |
| 20260903013056 | 100 | 213 | 6.0 | 11.0 | 0.00 | 0.00 | 0.00 | 10 | 992.4 |
| 20260903011557 | 101 | 237 | 6.0 | 11.0 | 0.00 | 0.00 | 0.00 | 9 | 992.5 |
| 20260903010056 | 101 | 192 | 6.0 | 14.0 | 0.00 | 0.00 | 0.00 | 8 | 992.6 |
| 20260903004552 | 102 | 202 | 7.0 | 15.0 | 0.00 | 0.00 | 0.00 | 8 | 992.6 |
| 20260903003058 | 102 | 213 | 5.0 | 15.0 | 0.00 | 0.00 | 0.00 | 8 | 992.6 |
| 20260903001549 | 102 | 173 | 7.0 | 16.0 | 0.00 | 0.00 | 0.00 | 7 | 992.7 |
| 20260903000049 | 103 | 161 | 7.0 | 13.0 | 0.00 | 0.00 | 0.00 | 8 | 992.7 |
| 20260902234558 | 103 | 211 | 8.0 | 14.0 | 0.00 | 0.00 | 0.00 | 8 | 992.8 |
| 20260902233047 | 103 | 169 | 6.0 | 18.0 | 0.00 | 0.00 | 0.00 | 7 | 992.7 |
| 20260902231544 | 102 | 155 | 2.0 | 12.0 | 0.00 | 0.00 | 0.00 | 9 | 992.9 |
| 20260902230046 | 102 | 135 | 8.0 | 15.0 | 0.00 | 0.00 | 0.00 | 9 | 993.1 |
| 20260902224539 | 101 | 138 | 7.0 | 14.0 | 0.00 | 0.00 | 0.00 | 10 | 993.4 |
| 20260902223043 | 101 | 172 | 7.0 | 19.0 | 0.00 | 0.00 | 0.00 | 10 | 993.5 |
| 20260902221535 | 101 | 153 | 8.0 | 14.0 | 0.00 | 0.00 | 0.00 | 10 | 993.9 |
| 20260902220032 | 101 | 155 | 8.0 | 15.0 | 0.00 | 0.00 | 0.00 | 11 | 994.0 |
| 20260902214532 | 101 | 211 | 8.0 | 15.0 | 0.00 | 0.00 | 0.00 | 12 | 994.1 |
| 20260902213030 | 100 | 155 | 2.0 | 12.0 | 0.00 | 0.00 | 0.00 | 12 | 994.5 |
| 20260902211529 | 100 | 193 | 11.0 | 21.0 | 0.00 | 0.00 | 0.00 | 12 | 994.6 |
| 20260902210031 | 99 | 128 | 6.0 | 12.0 | 0.00 | 0.00 | 0.00 | 13 | 995.0 |
| 20260902204528 | 99 | 152 | 7.0 | 15.0 | 0.00 | 0.00 | 0.00 | 13 | 995.2 |
| 20260902203033 | 99 | 204 | 8.0 | 13.0 | 0.00 | 0.00 | 0.00 | 13 | 995.5 |
| 20260902201523 | 98 | 132 | 6.0 | 14.0 | 0.00 | 0.00 | 0.00 | 14 | 995.6 |
| 20260902200023 | 98 | 117 | 5.0 | 14.0 | 0.00 | 0.00 | 0.00 | 14 | 995.7 |
| 20260902194522 | 98 | 121 | 6.0 | 11.0 | 0.00 | 0.00 | 0.00 | 15 | 995.9 |
| 20260902193021 | 97 | 211 | 5.0 | 16.0 | 0.00 | 0.00 | 0.00 | 14 | 996.3 |
| 20260902191533 | 97 | 243 | 2.0 | 12.0 | 0.00 | 0.00 | 0.00 | 15 | 996.4 |
| 20260902190019 | 97 | 178 | 6.0 | 12.0 | 0.00 | 0.00 | 0.00 | 16 | 996.7 |
| 20260902184523 | 96 | 182 | 8.0 | 14.0 | 0.00 | 0.00 | 0.00 | 16 | 996.8 |
| 20260902183015 | 96 | 138 | 1.0 | 10.0 | 0.00 | 0.00 | 0.00 | 16 | 997.1 |
| 20260902181514 | 95 | 207 | 7.0 | 11.0 | 0.00 | 0.00 | 0.00 | 15 | 997.2 |
| 20260902180011 | 94 | 167 | 3.0 | 8.0 | 0.00 | 0.00 | 0.00 | 17 | 997.4 |
| 20260902174509 | 94 | 212 | 4.0 | 9.0 | 0.00 | 0.00 | 0.00 | 17 | 997.5 |
| 20260902173006 | 92 | 135 | 4.0 | 9.0 | 0.00 | 0.00 | 0.00 | 19 | 997.6 |
| 20260902171503 | 91 | 115 | 5.0 | 10.0 | 0.00 | 0.00 | 0.00 | 20 | 997.6 |
| 20260902170003 | 91 | 213 | 3.0 | 9.0 | 0.00 | 0.00 | 0.00 | 19 | 997.6 |
| 20260902164502 | 90 | 212 | 6.0 | 10.0 | 0.00 | 0.00 | 0.00 | 22 | 997.5 |
| 20260902163002 | 89 | 213 | 4.0 | 9.0 | 0.00 | 0.00 | 0.00 | 22 | 997.5 |
| 20260902161501 | 88 | 159 | 4.0 | 8.0 | 0.00 | 0.00 | 0.00 | 21 | 997.5 |
| 20260902160001 | 88 | 163 | 3.0 | 8.0 | 0.00 | 0.00 | 0.00 | 18 | 997.6 |
| 20260902154600 | 88 | 207 | 2.0 | 8.0 | 0.00 | 0.00 | 0.00 | 17 | 997.5 |
| 20260902153110 | 86 | 214 | 2.0 | 9.0 | 0.00 | 0.00 | 0.00 | 19 | 997.4 |
| 20260902151558 | 85 | 213 | 4.0 | 7.0 | 0.00 | 0.00 | 0.00 | 18 | 997.3 |
| 20260902150056 | 85 | 168 | 2.0 | 5.0 | 0.00 | 0.00 | 0.00 | 20 | 997.3 |
| 20260902144554 | 84 | 149 | 1.0 | 6.0 | 0.00 | 0.00 | 0.00 | 21 | 997.2 |
| 20260902143053 | 83 | 146 | 2.0 | 6.0 | 0.00 | 0.00 | 0.00 | 22 | 997.0 |
| 20260902141551 | 82 | 151 | 1.0 | 6.0 | 0.00 | 0.00 | 0.00 | 21 | 996.9 |
| 20260902140049 | 80 | 133 | 1.0 | 5.0 | 0.00 | 0.00 | 0.00 | 25 | 996.6 |
| 20260902134554 | 79 | 138 | 0.0 | 2.0 | 0.00 | 0.00 | 0.00 | 25 | 996.5 |
| 20260902133047 | 78 | 155 | 0.0 | 5.0 | 0.00 | 0.00 | 0.00 | 23 | 996.4 |
| 20260902131550 | 78 | 157 | 1.0 | 4.0 | 0.00 | 0.00 | 0.00 | 24 | 996.2 |
| 20260902130042 | 78 | 140 | 0.0 | 2.0 | 0.00 | 0.00 | 0.00 | 25 | 996.1 |
| 20260902124541 | 79 | 166 | 0.0 | 4.0 | 0.00 | 0.00 | 0.00 | 27 | 995.9 |
| 20260902123058 | 78 | 142 | 1.0 | 3.0 | 0.00 | 0.00 | 0.00 | 28 | 995.8 |
| 20260902121546 | 78 | 147 | 0.0 | 2.0 | 0.00 | 0.00 | 0.00 | 26 | 995.8 |
| 20260902120035 | 79 | 154 | 0.0 | 2.0 | 0.00 | 0.00 | 0.00 | 26 | 995.8 |
| 20260902114532 | 80 | 137 | 0.0 | 1.0 | 0.00 | 0.00 | 0.00 | 25 | 995.7 |
| 20260902113030 | 81 | 142 | 0.0 | 4.0 | 0.00 | 0.00 | 0.00 | 24 | 995.5 |
| 20260902111535 | 82 | 135 | 0.0 | 2.0 | 0.00 | 0.00 | 0.00 | 24 | 995.3 |
| 20260902110023 | 82 | 165 | 1.0 | 3.0 | 0.00 | 0.00 | 0.00 | 24 | 995.4 |
| 20260902104522 | 83 | 143 | 3.0 | 5.0 | 0.00 | 0.00 | 0.00 | 28 | 995.3 |
| 20260902103020 | 83 | 227 | 1.0 | 3.0 | 0.00 | 0.00 | 0.00 | 25 | 995.2 |
| 20260902101517 | 84 | 235 | 0.0 | 1.0 | 0.00 | 0.00 | 0.00 | 35 | 995.2 |
| 20260902100014 | 85 | 153 | 1.0 | 5.0 | 0.00 | 0.00 | 0.00 | 34 | 995.1 |
| 20260902094511 | 86 | 211 | 3.0 | 8.0 | 0.00 | 0.00 | 0.00 | 34 | 994.9 |
| 20260902093110 | 86 | 240 | 1.0 | 5.0 | 0.00 | 0.00 | 0.00 | 40 | 994.9 |
| 20260902091505 | 87 | 224 | 3.0 | 8.0 | 0.00 | 0.00 | 0.00 | 39 | 994.7 |
| 20260902090004 | 88 | 203 | 5.0 | 10.0 | 0.00 | 0.00 | 0.00 | 39 | 994.7 |
| 20260902084502 | 88 | 205 | 5.0 | 9.0 | 0.00 | 0.00 | 0.00 | 42 | 994.7 |
| 20260902083001 | 89 | 148 | 3.0 | 9.0 | 0.00 | 0.00 | 0.00 | 42 | 994.7 |
| 20260902081601 | 88 | 222 | 4.0 | 11.0 | 0.00 | 0.00 | 0.00 | 43 | 994.7 |
| 20260902080059 | 88 | 153 | 7.0 | 12.0 | 0.00 | 0.00 | 0.00 | 43 | 994.7 |
| 20260902074608 | 89 | 219 | 5.0 | 10.0 | 0.00 | 0.00 | 0.00 | 41 | 994.5 |
| 20260902073051 | 90 | 159 | 5.0 | 10.0 | 0.00 | 0.00 | 0.00 | 37 | 994.2 |
| 20260902071549 | 91 | 145 | 5.0 | 10.0 | 0.00 | 0.00 | 0.00 | 34 | 994.1 |
| 20260902070046 | 91 | 148 | 4.0 | 9.0 | 0.00 | 0.00 | 0.00 | 35 | 994.0 |
| 20260902064551 | 91 | 134 | 4.0 | 10.0 | 0.00 | 0.00 | 0.00 | 30 | 993.8 |
| 20260902063056 | 91 | 149 | 3.0 | 8.0 | 0.00 | 0.00 | 0.00 | 26 | 993.6 |